﻿#,"Date Time, GMT+00:00","Temp, °C (LGR S/N: 10121373, SEN S/N: 10121373, LBL: Pos7)","RH, % (LGR S/N: 10121373, SEN S/N: 10121373, LBL: Pos7)","DewPt, °C (LGR S/N: 10121373, SEN S/N: 10121373)",Coupler Detached (LGR S/N: 10121373),Coupler Attached (LGR S/N: 10121373),Host Connected (LGR S/N: 10121373),End Of File (LGR S/N: 10121373)
1,3/30/2019 7:00,4.714,92.387,3.289,Logged,,,
2,3/30/2019 7:15,5.024,91.866,3.529,,,,
3,3/30/2019 7:30,5.282,91.177,3.692,,,,
4,3/30/2019 7:45,5.334,90.381,3.635,,,,
5,3/30/2019 8:00,5.591,89.964,3.832,,,,
6,3/30/2019 8:15,5.975,88.45,4.001,,,,
7,3/30/2019 8:30,6.408,87.889,4.35,,,,
8,3/30/2019 8:45,6.382,86.9,4.182,,,,
9,3/30/2019 9:00,6.914,85.415,4.489,,,,
10,3/30/2019 9:15,7.167,84.216,4.557,,,,
11,3/30/2019 9:30,7.72,82.705,4.868,,,,
12,3/30/2019 9:45,7.87,81.514,4.828,,,,
13,3/30/2019 10:00,7.895,81.252,4.811,,,,
14,3/30/2019 10:15,8.419,78.783,4.922,,,,
15,3/30/2019 10:30,8.568,77.674,4.882,,,,
16,3/30/2019 10:45,9.188,76.301,5.251,,,,
17,3/30/2019 11:00,9.632,75.043,5.462,,,,
18,3/30/2019 11:15,9.608,72.591,4.996,,,,
19,3/30/2019 11:30,10.124,71.628,5.317,,,,
20,3/30/2019 11:45,11.273,68.789,5.878,,,,
21,3/30/2019 12:00,11.662,68.547,6.203,,,,
22,3/30/2019 12:15,11.443,69.477,6.176,,,,
23,3/30/2019 12:30,11.346,69.97,6.179,,,,
24,3/30/2019 12:45,12.147,68.064,6.572,,,,
25,3/30/2019 13:00,12.703,66.841,6.856,,,,
26,3/30/2019 13:15,12.389,66.899,6.568,,,,
27,3/30/2019 13:30,12.678,66.981,6.862,,,,
28,3/30/2019 13:45,12.268,67.223,6.518,,,,
29,3/30/2019 14:00,12.122,68.346,6.606,,,,
30,3/30/2019 14:15,12.654,66.166,6.671,,,,
31,3/30/2019 14:30,13.04,65.916,6.987,,,,
32,3/30/2019 14:45,13.209,65.568,7.075,,,,
33,3/30/2019 15:00,13.401,65.166,7.174,,,,
34,3/30/2019 15:15,13.353,64.427,6.97,,,,
35,3/30/2019 15:30,13.882,63.346,7.238,,,,
36,3/30/2019 15:45,13.473,63.335,6.847,,,,
37,3/30/2019 16:00,13.882,61.221,6.763,,,,
38,3/30/2019 16:15,14.026,61.718,7.012,,,,
39,3/30/2019 16:30,13.738,61.936,6.788,,,,
40,3/30/2019 16:45,13.594,62.149,6.699,,,,
41,3/30/2019 17:00,13.209,62.408,6.392,,,,
42,3/30/2019 17:15,13.016,62.905,6.318,,,,
43,3/30/2019 17:30,12.847,64.485,6.5,,,,
44,3/30/2019 17:45,12.63,65.437,6.495,,,,
45,3/30/2019 18:00,12.001,68.41,6.502,,,,
46,3/30/2019 18:15,11.759,69.793,6.542,,,,
47,3/30/2019 18:30,11.516,70.996,6.54,,,,
48,3/30/2019 18:45,11.37,71.561,6.507,,,,
49,3/30/2019 19:00,10.98,73.228,6.442,,,,
50,3/30/2019 19:15,10.956,73.643,6.494,,,,
51,3/30/2019 19:30,10.369,76.576,6.448,,,,
52,3/30/2019 19:45,9.805,79.492,6.394,,,,
53,3/30/2019 20:00,9.41,81.217,6.291,,,,
54,3/30/2019 20:15,9.213,81.656,6.168,,,,
55,3/30/2019 20:30,9.213,82.193,6.254,,,,
56,3/30/2019 20:45,9.114,82.598,6.221,,,,
57,3/30/2019 21:00,9.015,83.002,6.188,,,,
58,3/30/2019 21:15,9.04,83.221,6.246,,,,
59,3/30/2019 21:30,8.668,83.402,5.909,,,,
60,3/30/2019 21:45,8.568,83.909,5.89,,,,
61,3/30/2019 22:00,8.22,85.043,5.72,,,,
62,3/30/2019 22:15,8.07,86.267,5.756,,,,
63,3/30/2019 22:30,7.77,87.498,5.641,,,,
64,3/30/2019 22:45,7.569,87.553,5.451,,,,
65,3/30/2019 23:00,7.368,87.918,5.305,,,,
66,3/30/2019 23:15,7.318,87.699,5.223,,,,
67,3/30/2019 23:30,7.293,86.966,5.092,,,,
68,3/30/2019 23:45,7.469,85.495,5.048,,,,
69,3/31/2019 0:00,7.494,83.157,4.716,,,,
70,3/31/2019 0:15,7.645,78.399,4.102,,,,
71,3/31/2019 0:30,7.419,80.556,4.233,,,,
72,3/31/2019 0:45,7.268,81.644,4.258,,,,
73,3/31/2019 1:00,7.116,80.73,3.964,,,,
74,3/31/2019 1:15,7.142,78.29,3.593,,,,
75,3/31/2019 1:30,7.368,74.054,3.091,,,,
76,3/31/2019 1:45,7.268,72.902,2.788,,,,
77,3/31/2019 2:00,7.293,72.575,2.754,,,,
78,3/31/2019 2:15,7.242,73.201,2.817,,,,
79,3/31/2019 2:30,7.116,75.32,3.067,,,,
80,3/31/2019 2:45,6.965,75.78,2.999,,,,
81,3/31/2019 3:00,7.116,76.139,3.207,,,,
82,3/31/2019 3:15,7.015,77.505,3.339,,,,
83,3/31/2019 3:30,6.914,77.835,3.296,,,,
84,3/31/2019 3:45,6.94,78.165,3.375,,,,
85,3/31/2019 4:00,6.94,78.246,3.388,,,,
86,3/31/2019 4:15,6.864,79.199,3.471,,,,
87,3/31/2019 4:30,6.763,80.276,3.545,,,,
88,3/31/2019 4:45,6.611,81.389,3.573,,,,
89,3/31/2019 5:00,6.509,81.897,3.553,,,,
90,3/31/2019 5:15,6.433,83.07,3.66,,,,
91,3/31/2019 5:30,6.255,83.949,3.619,,,,
92,3/31/2019 5:45,6.23,84.258,3.64,,,,
93,3/31/2019 6:00,6.102,84.804,3.597,,,,
94,3/31/2019 6:15,6.051,85.027,3.579,,,,
95,3/31/2019 6:30,6.153,84.868,3.656,,,,
96,3/31/2019 6:45,6.255,84.866,3.757,,,,
97,3/31/2019 7:00,6.408,84.405,3.838,,,,
98,3/31/2019 7:15,6.458,83.313,3.722,,,,
99,3/31/2019 7:30,6.763,81.423,3.728,,,,
100,3/31/2019 7:45,7.142,78.614,3.646,,,,
101,3/31/2019 8:00,7.469,75.776,3.488,,,,
102,3/31/2019 8:15,7.469,74.322,3.235,,,,
103,3/31/2019 8:30,8.17,71.887,3.477,,,,
104,3/31/2019 8:45,8.145,69.474,3.003,,,,
105,3/31/2019 9:00,8.866,67.373,3.289,,,,
106,3/31/2019 9:15,9.262,65.157,3.222,,,,
107,3/31/2019 9:30,9.583,64.753,3.445,,,,
108,3/31/2019 9:45,8.817,64.877,2.739,,,,
109,3/31/2019 10:00,9.089,60.81,2.133,,,,
110,3/31/2019 10:15,8.965,58.031,1.39,,,,
111,3/31/2019 10:30,9.386,56.261,1.369,,,,
112,3/31/2019 10:45,9.632,52.344,0.629,,,,
113,3/31/2019 11:00,9.608,52.944,0.759,,,,
114,3/31/2019 11:15,9.854,53.039,1.013,,,,
115,3/31/2019 11:30,10.075,53.282,1.28,,,,
116,3/31/2019 11:45,9.78,55.755,1.618,,,,
117,3/31/2019 12:00,9.657,56.005,1.562,,,,
118,3/31/2019 12:15,9.608,54.864,1.239,,,,
119,3/31/2019 12:30,10.198,53.451,1.438,,,,
120,3/31/2019 12:45,9.805,53.634,1.117,,,,
121,3/31/2019 13:00,9.829,53.006,0.981,,,,
122,3/31/2019 13:15,10.173,51.817,0.994,,,,
123,3/31/2019 13:30,9.903,53.378,1.144,,,,
124,3/31/2019 13:45,10.198,51.942,1.05,,,,
125,3/31/2019 14:00,10.1,52.321,1.057,,,,
126,3/31/2019 14:15,10.075,53.312,1.288,,,,
127,3/31/2019 14:30,9.977,51.94,0.844,,,,
128,3/31/2019 14:45,9.903,51.658,0.702,,,,
129,3/31/2019 15:00,9.682,51.324,0.409,,,,
130,3/31/2019 15:15,10.247,51.524,0.986,,,,
131,3/31/2019 15:30,10.1,50.198,0.497,,,,
132,3/31/2019 15:45,9.608,50.677,0.169,,,,
133,3/31/2019 16:00,9.46,54.093,0.91,,,,
134,3/31/2019 16:15,9.485,54.785,1.104,,,,
135,3/31/2019 16:30,9.213,55.967,1.137,,,,
136,3/31/2019 16:45,9.262,55.647,1.106,,,,
137,3/31/2019 17:00,9.114,55.237,0.868,,,,
138,3/31/2019 17:15,8.618,55.727,0.522,,,,
139,3/31/2019 17:30,8.891,55.65,0.759,,,,
140,3/31/2019 17:45,8.568,57.053,0.789,,,,
141,3/31/2019 18:00,8.369,57.583,0.725,,,,
142,3/31/2019 18:15,8.07,58.917,0.748,,,,
143,3/31/2019 18:30,7.845,60.778,0.948,,,,
144,3/31/2019 18:45,7.569,62.759,1.11,,,,
145,3/31/2019 19:00,7.343,64.042,1.162,,,,
146,3/31/2019 19:15,7.066,65.365,1.166,,,,
147,3/31/2019 19:30,6.763,67.381,1.273,,,,
148,3/31/2019 19:45,6.535,69.587,1.474,,,,
149,3/31/2019 20:00,6.357,69.832,1.349,,,,
150,3/31/2019 20:15,6.306,70.352,1.396,,,,
151,3/31/2019 20:30,6.077,71.169,1.325,,,,
152,3/31/2019 20:45,5.898,72.13,1.325,,,,
153,3/31/2019 21:00,5.847,72.396,1.323,,,,
154,3/31/2019 21:15,5.796,72.275,1.252,,,,
155,3/31/2019 21:30,5.642,73.4,1.302,,,,
156,3/31/2019 21:45,5.282,74.993,1.229,,,,
157,3/31/2019 22:00,5.102,76.013,1.226,,,,
158,3/31/2019 22:15,5.05,76.381,1.237,,,,
159,3/31/2019 22:30,5.102,76.095,1.239,,,,
160,3/31/2019 22:45,5.154,76.024,1.278,,,,
161,3/31/2019 23:00,5.179,76.003,1.299,,,,
162,3/31/2019 23:15,5.179,76.03,1.304,,,,
163,3/31/2019 23:30,5.154,76.187,1.305,,,,
164,3/31/2019 23:45,4.973,76.932,1.253,,,,
165,4/1/2019 0:00,4.74,77.688,1.15,,,,
166,4/1/2019 0:15,4.61,78.169,1.102,,,,
167,4/1/2019 0:30,4.558,78.506,1.105,,,,
168,4/1/2019 0:45,4.428,78.771,1.021,,,,
169,4/1/2019 1:00,4.532,78.82,1.13,,,,
170,4/1/2019 1:15,4.454,78.617,1.021,,,,
171,4/1/2019 1:30,4.48,78.889,1.09,,,,
172,4/1/2019 1:45,4.376,79.079,1.019,,,,
173,4/1/2019 2:00,4.454,78.91,1.068,,,,
174,4/1/2019 2:15,4.272,79.668,1.01,,,,
175,4/1/2019 2:30,4.402,79.564,1.121,,,,
176,4/1/2019 2:45,4.376,79.452,1.078,,,,
177,4/1/2019 3:00,4.454,79.123,1.102,,,,
178,4/1/2019 3:15,4.376,78.786,0.972,,,,
179,4/1/2019 3:30,4.402,79.085,1.045,,,,
180,4/1/2019 3:45,4.48,78.782,1.073,,,,
181,4/1/2019 4:00,4.636,77.263,0.979,,,,
182,4/1/2019 4:15,4.61,76.477,0.824,,,,
183,4/1/2019 4:30,4.662,75.623,0.732,,,,
184,4/1/2019 4:45,4.636,74.994,0.601,,,,
185,4/1/2019 5:00,4.558,74.216,0.393,,,,
186,4/1/2019 5:15,4.454,74.032,0.26,,,,
187,4/1/2019 5:30,4.402,73.666,0.147,,,,
188,4/1/2019 5:45,4.428,73.453,0.135,,,,
189,4/1/2019 6:00,4.428,73.399,0.126,,,,
190,4/1/2019 6:15,4.402,73.366,0.095,,,,
191,4/1/2019 6:30,4.61,73.245,0.275,,,,
192,4/1/2019 6:45,4.558,73.097,0.199,,,,
193,4/1/2019 7:00,4.766,73.057,0.393,,,,
194,4/1/2019 7:15,4.766,72.564,0.307,,,,
195,4/1/2019 7:30,4.973,72.358,0.471,,,,
196,4/1/2019 7:45,5.231,71.694,0.602,,,,
197,4/1/2019 8:00,5.462,71.297,0.755,,,,
198,4/1/2019 8:15,5.745,70.048,0.799,,,,
199,4/1/2019 8:30,6.077,69.247,0.97,,,,
200,4/1/2019 8:45,6.153,68.702,0.941,,,,
201,4/1/2019 9:00,6.585,68.363,1.292,,,,
202,4/1/2019 9:15,6.56,69.312,1.447,,,,
203,4/1/2019 9:30,6.661,70.058,1.684,,,,
204,4/1/2019 9:45,7.066,68.987,1.873,,,,
205,4/1/2019 10:00,7.469,68.303,2.129,,,,
206,4/1/2019 10:15,7.268,68.322,1.94,,,,
207,4/1/2019 10:30,7.519,68.115,2.141,,,,
208,4/1/2019 10:45,7.945,66.607,2.255,,,,
209,4/1/2019 11:00,8.045,66.54,2.337,,,,
210,4/1/2019 11:15,8.245,66.063,2.433,,,,
211,4/1/2019 11:30,8.319,65.133,2.316,,,,
212,4/1/2019 11:45,8.519,65.34,2.549,,,,
213,4/1/2019 12:00,8.841,64.651,2.716,,,,
214,4/1/2019 12:15,9.312,62.943,2.806,,,,
215,4/1/2019 12:30,9.435,63.109,2.959,,,,
216,4/1/2019 12:45,9.731,61.91,2.982,,,,
217,4/1/2019 13:00,9.731,62.87,3.189,,,,
218,4/1/2019 13:15,10.247,61.354,3.349,,,,
219,4/1/2019 13:30,10.198,61.959,3.436,,,,
220,4/1/2019 13:45,10.296,61.274,3.378,,,,
221,4/1/2019 14:00,10.394,61.144,3.442,,,,
222,4/1/2019 14:15,10.638,60.833,3.605,,,,
223,4/1/2019 14:30,11.321,59.146,3.868,,,,
224,4/1/2019 14:45,11.516,57.811,3.739,,,,
225,4/1/2019 15:00,11.807,57.23,3.875,,,,
226,4/1/2019 15:15,11.807,56.842,3.782,,,,
227,4/1/2019 15:30,11.71,56.648,3.643,,,,
228,4/1/2019 15:45,12.098,55.717,3.78,,,,
229,4/1/2019 16:00,12.122,55.931,3.855,,,,
230,4/1/2019 16:15,12.413,55.374,3.989,,,,
231,4/1/2019 16:30,12.243,55.439,3.847,,,,
232,4/1/2019 16:45,12.05,56.49,3.924,,,,
233,4/1/2019 17:00,12.098,56.258,3.913,,,,
234,4/1/2019 17:15,12.074,57.152,4.107,,,,
235,4/1/2019 17:30,11.71,58.109,3.992,,,,
236,4/1/2019 17:45,11.686,59.293,4.246,,,,
237,4/1/2019 18:00,11.516,60.153,4.282,,,,
238,4/1/2019 18:15,11.321,61.269,4.349,,,,
239,4/1/2019 18:30,11.078,62.488,4.386,,,,
240,4/1/2019 18:45,10.785,63.458,4.317,,,,
241,4/1/2019 19:00,10.638,64.419,4.381,,,,
242,4/1/2019 19:15,10.418,65.449,4.386,,,,
243,4/1/2019 19:30,10.075,67.024,4.378,,,,
244,4/1/2019 19:45,9.903,68.021,4.411,,,,
245,4/1/2019 20:00,9.632,69.305,4.402,,,,
246,4/1/2019 20:15,9.238,70.64,4.276,,,,
247,4/1/2019 20:30,9.015,72.473,4.401,,,,
248,4/1/2019 20:45,8.866,73.473,4.439,,,,
249,4/1/2019 21:00,8.717,74.468,4.472,,,,
250,4/1/2019 21:15,8.494,75.332,4.407,,,,
251,4/1/2019 21:30,8.17,76.306,4.261,,,,
252,4/1/2019 21:45,7.92,77.046,4.144,,,,
253,4/1/2019 22:00,7.795,77.536,4.104,,,,
254,4/1/2019 22:15,7.695,78.003,4.085,,,,
255,4/1/2019 22:30,7.444,78.463,3.916,,,,
256,4/1/2019 22:45,7.419,78.836,3.953,,,,
257,4/1/2019 23:00,7.242,79.282,3.854,,,,
258,4/1/2019 23:15,7.318,79.191,3.913,,,,
259,4/1/2019 23:30,7.091,79.33,3.714,,,,
260,4/1/2019 23:45,7.066,79.512,3.719,,,,
261,4/2/2019 0:00,7.015,79.609,3.685,,,,
262,4/2/2019 0:15,6.965,79.866,3.677,,,,
263,4/2/2019 0:30,7.015,79.663,3.694,,,,
264,4/2/2019 0:45,6.965,79.678,3.647,,,,
265,4/2/2019 1:00,6.965,79.624,3.638,,,,
266,4/2/2019 1:15,7.066,79.405,3.702,,,,
267,4/2/2019 1:30,7.167,78.997,3.734,,,,
268,4/2/2019 1:45,7.142,78.883,3.69,,,,
269,4/2/2019 2:00,7.217,78.468,3.696,,,,
270,4/2/2019 2:15,7.167,78.295,3.618,,,,
271,4/2/2019 2:30,7.015,78.802,3.554,,,,
272,4/2/2019 2:45,7.041,78.942,3.601,,,,
273,4/2/2019 3:00,7.419,78.566,3.909,,,,
274,4/2/2019 3:15,7.343,78.738,3.863,,,,
275,4/2/2019 3:30,7.217,78.981,3.78,,,,
276,4/2/2019 3:45,6.813,79.43,3.459,,,,
277,4/2/2019 4:00,6.204,82.885,3.406,,,,
278,4/2/2019 4:15,5.796,84.783,3.291,,,,
279,4/2/2019 4:30,5.796,85.981,3.468,,,,
280,4/2/2019 4:45,5.898,86.912,3.705,,,,
281,4/2/2019 5:00,5.591,87.481,3.483,,,,
282,4/2/2019 5:15,5.437,87.958,3.398,,,,
283,4/2/2019 5:30,5.334,88.086,3.315,,,,
284,4/2/2019 5:45,5.334,87.932,3.293,,,,
285,4/2/2019 6:00,5.488,88.047,3.462,,,,
286,4/2/2019 6:15,5.565,87.912,3.519,,,,
287,4/2/2019 6:30,5.462,87.604,3.374,,,,
288,4/2/2019 6:45,5.642,87.288,3.506,,,,
289,4/2/2019 7:00,5.872,85.687,3.501,,,,
290,4/2/2019 7:15,5.898,85.537,3.504,,,,
291,4/2/2019 7:30,6.026,84.629,3.495,,,,
292,4/2/2019 7:45,6.051,84.164,3.45,,,,
293,4/2/2019 8:00,6.128,84.339,3.552,,,,
294,4/2/2019 8:15,6.585,83.553,3.884,,,,
295,4/2/2019 8:30,6.636,83.038,3.854,,,,
296,4/2/2019 8:45,6.763,83.226,4.008,,,,
297,4/2/2019 9:00,6.661,82.277,3.762,,,,
298,4/2/2019 9:15,6.458,82.098,3.534,,,,
299,4/2/2019 9:30,6.357,83.237,3.61,,,,
300,4/2/2019 9:45,6.331,83.626,3.645,,,,
301,4/2/2019 10:00,6.661,83.123,3.892,,,,
302,4/2/2019 10:15,6.687,79.053,3.273,,,,
303,4/2/2019 10:30,7.015,77.559,3.348,,,,
304,4/2/2019 10:45,7.293,75.849,3.329,,,,
305,4/2/2019 11:00,7.519,72.065,2.881,,,,
306,4/2/2019 11:15,7.895,69.792,2.823,,,,
307,4/2/2019 11:30,8.045,69.37,2.887,,,,
308,4/2/2019 11:45,7.945,65.952,2.124,,,,
309,4/2/2019 12:00,8.12,64.179,1.93,,,,
310,4/2/2019 12:15,8.693,62.199,2.059,,,,
311,4/2/2019 12:30,8.767,61.456,1.969,,,,
312,4/2/2019 12:45,8.444,64.581,2.322,,,,
313,4/2/2019 13:00,7.444,71.02,2.617,,,,
314,4/2/2019 13:15,8.618,65.959,2.769,,,,
315,4/2/2019 13:30,9.213,58.719,1.781,,,,
316,4/2/2019 13:45,9.682,56.098,1.608,,,,
317,4/2/2019 14:00,8.817,59.184,1.513,,,,
318,4/2/2019 14:15,8.792,61.198,1.936,,,,
319,4/2/2019 14:30,8.643,56.769,0.792,,,,
320,4/2/2019 14:45,9.41,57.333,1.646,,,,
321,4/2/2019 15:00,9.756,53.116,0.94,,,,
322,4/2/2019 15:15,9.756,54.047,1.175,,,,
323,4/2/2019 15:30,10.075,51.743,0.884,,,,
324,4/2/2019 15:45,10.026,49.975,0.368,,,,
325,4/2/2019 16:00,9.805,52.912,0.934,,,,
326,4/2/2019 16:15,9.41,57.303,1.639,,,,
327,4/2/2019 16:30,9.089,58.67,1.653,,,,
328,4/2/2019 16:45,8.817,58.685,1.4,,,,
329,4/2/2019 17:00,8.916,54.999,0.625,,,,
330,4/2/2019 17:15,8.593,53.576,-0.027,,,,
331,4/2/2019 17:30,8.07,58.594,0.675,,,,
332,4/2/2019 17:45,7.795,61.699,1.099,,,,
333,4/2/2019 18:00,7.293,64.635,1.235,,,,
334,4/2/2019 18:15,7.318,65.639,1.462,,,,
335,4/2/2019 18:30,7.116,66.399,1.42,,,,
336,4/2/2019 18:45,7.041,66.442,1.356,,,,
337,4/2/2019 19:00,6.94,66.253,1.222,,,,
338,4/2/2019 19:15,6.965,65.717,1.14,,,,
339,4/2/2019 19:30,6.94,66.395,1.25,,,,
340,4/2/2019 19:45,6.535,67.959,1.166,,,,
341,4/2/2019 20:00,6.306,68.843,1.115,,,,
342,4/2/2019 20:15,6.23,68.464,0.969,,,,
343,4/2/2019 20:30,6.051,69.466,0.986,,,,
344,4/2/2019 20:45,5.719,70.46,0.85,,,,
345,4/2/2019 21:00,5.616,71.189,0.884,,,,
346,4/2/2019 21:15,5.591,72.041,1.012,,,,
347,4/2/2019 21:30,5.539,71.948,0.946,,,,
348,4/2/2019 21:45,5.385,72.469,0.89,,,,
349,4/2/2019 22:00,5.488,72.874,1.061,,,,
350,4/2/2019 22:15,5.257,73.924,1.02,,,,
351,4/2/2019 22:30,5.128,74.661,1.022,,,,
352,4/2/2019 22:45,4.973,75.634,1.036,,,,
353,4/2/2019 23:00,4.895,76.213,1.058,,,,
354,4/2/2019 23:15,4.662,76.757,0.921,,,,
355,4/2/2019 23:30,4.584,77.494,0.966,,,,
356,4/2/2019 23:45,4.376,78.412,0.912,,,,
357,4/3/2019 0:00,4.194,79.942,0.977,,,,
358,4/3/2019 0:15,3.985,80.319,0.831,,,,
359,4/3/2019 0:30,3.854,80.923,0.796,,,,
360,4/3/2019 0:45,3.67,81.513,0.707,,,,
361,4/3/2019 1:00,3.617,81.606,0.669,,,,
362,4/3/2019 1:15,3.38,81.944,0.488,,,,
363,4/3/2019 1:30,3.301,82.318,0.467,,,,
364,4/3/2019 1:45,3.248,82.567,0.452,,,,
365,4/3/2019 2:00,3.221,82.378,0.398,,,,
366,4/3/2019 2:15,3.221,81.829,0.315,,,,
367,4/3/2019 2:30,2.983,82.219,0.14,,,,
368,4/3/2019 2:45,2.557,83.627,-0.07,,,,
369,4/3/2019 3:00,2.423,83.621,-0.203,,,,
370,4/3/2019 3:15,2.503,83.511,-0.14,,,,
371,4/3/2019 3:30,2.396,83.511,-0.245,,,,
372,4/3/2019 3:45,2.396,83.822,-0.2,,,,
373,4/3/2019 4:00,2.316,84.164,-0.229,,,,
374,4/3/2019 4:15,2.316,84.654,-0.158,,,,
375,4/3/2019 4:30,2.236,84.66,-0.236,,,,
376,4/3/2019 4:45,2.047,85.282,-0.332,,,,
377,4/3/2019 5:00,2.128,85.097,-0.279,,,,
378,4/3/2019 5:15,2.209,84.911,-0.227,,,,
379,4/3/2019 5:30,1.94,85.154,-0.457,,,,
380,4/3/2019 5:45,1.913,85.276,-0.466,,,,
381,4/3/2019 6:00,1.832,85.41,-0.527,,,,
382,4/3/2019 6:15,1.805,85.531,-0.537,,,,
383,4/3/2019 6:30,2.343,84.866,-0.101,,,,
384,4/3/2019 6:45,2.637,83.956,0.057,,,,
385,4/3/2019 7:00,2.93,82.806,0.175,,,,
386,4/3/2019 7:15,3.354,82.383,0.528,,,,
387,4/3/2019 7:30,3.932,81.257,0.925,,,,
388,4/3/2019 7:45,4.454,79.336,1.136,,,,
389,4/3/2019 8:00,4.844,78.167,1.329,,,,
390,4/3/2019 8:15,5.128,77.1,1.432,,,,
391,4/3/2019 8:30,5.642,75.612,1.683,,,,
392,4/3/2019 8:45,5.36,75.308,1.357,,,,
393,4/3/2019 9:00,5.437,74.207,1.243,,,,
394,4/3/2019 9:15,5.488,74.79,1.394,,,,
395,4/3/2019 9:30,5.975,73.934,1.718,,,,
396,4/3/2019 9:45,5.745,73.283,1.381,,,,
397,4/3/2019 10:00,6.051,71.912,1.434,,,,
398,4/3/2019 10:15,5.796,71.502,1.113,,,,
399,4/3/2019 10:30,6.153,70.406,1.259,,,,
400,4/3/2019 10:45,6.331,70.162,1.386,,,,
401,4/3/2019 11:00,6.433,69.175,1.299,,,,
402,4/3/2019 11:15,6.331,71.441,1.62,,,,
403,4/3/2019 11:30,6.509,71.199,1.748,,,,
404,4/3/2019 11:45,7.368,69.775,2.312,,,,
405,4/3/2019 12:00,7.066,67.918,1.668,,,,
406,4/3/2019 12:15,7.343,68.195,1.988,,,,
407,4/3/2019 12:30,6.99,68.439,1.695,,,,
408,4/3/2019 12:45,7.167,66.748,1.537,,,,
409,4/3/2019 13:00,7.167,66.692,1.526,,,,
410,4/3/2019 13:15,7.368,64.763,1.333,,,,
411,4/3/2019 13:30,7.419,65.429,1.516,,,,
412,4/3/2019 13:45,7.268,67.842,1.847,,,,
413,4/3/2019 14:00,7.444,67.281,1.907,,,,
414,4/3/2019 14:15,7.77,64.117,1.584,,,,
415,4/3/2019 14:30,8.767,61.66,2.013,,,,
416,4/3/2019 14:45,8.12,59.832,1,,,,
417,4/3/2019 15:00,8.095,61.517,1.345,,,,
418,4/3/2019 15:15,8.717,60.427,1.697,,,,
419,4/3/2019 15:30,8.593,58.237,1.087,,,,
420,4/3/2019 15:45,8.469,60.065,1.381,,,,
421,4/3/2019 16:00,8.717,60.047,1.612,,,,
422,4/3/2019 16:15,9.386,58.599,1.917,,,,
423,4/3/2019 16:30,9.756,56.645,1.808,,,,
424,4/3/2019 16:45,8.742,59.436,1.499,,,,
425,4/3/2019 17:00,6.382,73.44,2.027,,,,
426,4/3/2019 17:15,6.864,73.207,2.452,,,,
427,4/3/2019 17:30,6.914,73.273,2.513,,,,
428,4/3/2019 17:45,6.889,75.108,2.809,,,,
429,4/3/2019 18:00,7.268,72.846,2.779,,,,
430,4/3/2019 18:15,7.268,70.371,2.327,,,,
431,4/3/2019 18:30,6.585,75.127,2.518,,,,
432,4/3/2019 18:45,6.484,76.93,2.725,,,,
433,4/3/2019 19:00,6.102,78.71,2.646,,,,
434,4/3/2019 19:15,5.949,80.388,2.766,,,,
435,4/3/2019 19:30,5.847,81.799,2.888,,,,
436,4/3/2019 19:45,5.898,81.572,2.903,,,,
437,4/3/2019 20:00,5.796,77.189,2.097,,,,
438,4/3/2019 20:15,5.796,77.89,2.213,,,,
439,4/3/2019 20:30,5.924,78.187,2.387,,,,
440,4/3/2019 20:45,5.796,80.194,2.585,,,,
441,4/3/2019 21:00,5.642,81.17,2.589,,,,
442,4/3/2019 21:15,5.282,82.54,2.448,,,,
443,4/3/2019 21:30,5.179,82.99,2.415,,,,
444,4/3/2019 21:45,5.179,82.911,2.403,,,,
445,4/3/2019 22:00,5.128,82.215,2.246,,,,
446,4/3/2019 22:15,4.999,81.869,2.066,,,,
447,4/3/2019 22:30,4.792,82.769,2,,,,
448,4/3/2019 22:45,4.74,82.468,1.903,,,,
449,4/3/2019 23:00,4.61,82.622,1.799,,,,
450,4/3/2019 23:15,4.454,83.214,1.736,,,,
451,4/3/2019 23:30,4.324,83.888,1.708,,,,
452,4/3/2019 23:45,4.272,84.785,1.789,,,,
453,4/4/2019 0:00,3.906,85.938,1.596,,,,
454,4/4/2019 0:15,4.089,86.445,1.85,,,,
455,4/4/2019 0:30,4.115,86.477,1.88,,,,
456,4/4/2019 0:45,4.089,86.471,1.853,,,,
457,4/4/2019 1:00,4.22,86.245,1.95,,,,
458,4/4/2019 1:15,4.037,86.766,1.844,,,,
459,4/4/2019 1:30,4.037,87.381,1.931,,,,
460,4/4/2019 1:45,4.194,87.471,2.099,,,,
461,4/4/2019 2:00,4.037,87.611,1.964,,,,
462,4/4/2019 2:15,4.037,87.662,1.971,,,,
463,4/4/2019 2:30,3.722,87.916,1.695,,,,
464,4/4/2019 2:45,3.67,88.132,1.673,,,,
465,4/4/2019 3:00,3.67,88.234,1.687,,,,
466,4/4/2019 3:15,3.67,88.234,1.687,,,,
467,4/4/2019 3:30,3.801,88.241,1.818,,,,
468,4/4/2019 3:45,3.801,88.063,1.794,,,,
469,4/4/2019 4:00,3.564,88.055,1.558,,,,
470,4/4/2019 4:15,3.67,87.979,1.652,,,,
471,4/4/2019 4:30,3.564,87.724,1.512,,,,
472,4/4/2019 4:45,3.512,88.067,1.508,,,,
473,4/4/2019 5:00,3.564,88.233,1.583,,,,
474,4/4/2019 5:15,3.406,88.371,1.446,,,,
475,4/4/2019 5:30,3.617,88.272,1.64,,,,
476,4/4/2019 5:45,3.564,88.157,1.572,,,,
477,4/4/2019 6:00,3.749,87.948,1.726,,,,
478,4/4/2019 6:15,3.67,87.546,1.591,,,,
479,4/4/2019 6:30,3.88,87.419,1.781,,,,
480,4/4/2019 6:45,3.906,87.323,1.794,,,,
481,4/4/2019 7:00,3.512,87.813,1.472,,,,
482,4/4/2019 7:15,3.38,87.372,1.28,,,,
483,4/4/2019 7:30,3.459,87.468,1.372,,,,
484,4/4/2019 7:45,3.354,87.442,1.264,,,,
485,4/4/2019 8:00,3.512,87.073,1.368,,,,
486,4/4/2019 8:15,3.854,85.925,1.542,,,,
487,4/4/2019 8:30,4.999,84.334,2.439,,,,
488,4/4/2019 8:45,5.128,82.163,2.238,,,,
489,4/4/2019 9:00,5.745,78.98,2.341,,,,
490,4/4/2019 9:15,6.255,74.703,2.124,,,,
491,4/4/2019 9:30,6.458,74.499,2.286,,,,
492,4/4/2019 9:45,6.382,72.945,1.939,,,,
493,4/4/2019 10:00,6.204,72.081,1.612,,,,
494,4/4/2019 10:15,6.408,72.453,1.876,,,,
495,4/4/2019 10:30,6.712,70.626,1.838,,,,
496,4/4/2019 10:45,6.661,69.583,1.596,,,,
497,4/4/2019 11:00,6.839,69.085,1.672,,,,
498,4/4/2019 11:15,6.889,69.571,1.813,,,,
499,4/4/2019 11:30,7.268,67.758,1.831,,,,
500,4/4/2019 11:45,7.343,67.291,1.812,,,,
501,4/4/2019 12:00,8.717,65.462,2.763,,,,
502,4/4/2019 12:15,8.767,62.183,2.126,,,,
503,4/4/2019 12:30,8.22,62.524,1.679,,,,
504,4/4/2019 12:45,8.369,63.359,1.997,,,,
505,4/4/2019 13:00,8.319,64.041,2.092,,,,
506,4/4/2019 13:15,8.891,62.291,2.267,,,,
507,4/4/2019 13:30,8.99,61.639,2.22,,,,
508,4/4/2019 13:45,8.891,61.331,2.059,,,,
509,4/4/2019 14:00,9.287,60.463,2.244,,,,
510,4/4/2019 14:15,9.262,60.312,2.187,,,,
511,4/4/2019 14:30,9.336,60.559,2.312,,,,
512,4/4/2019 14:45,9.706,61,2.759,,,,
513,4/4/2019 15:00,9.879,58.383,2.331,,,,
514,4/4/2019 15:15,9.903,57.054,2.044,,,,
515,4/4/2019 15:30,9.879,57.287,2.076,,,,
516,4/4/2019 15:45,10.001,57.396,2.217,,,,
517,4/4/2019 16:00,9.829,57.487,2.076,,,,
518,4/4/2019 16:15,9.952,57.329,2.155,,,,
519,4/4/2019 16:30,9.903,57.054,2.044,,,,
520,4/4/2019 16:45,9.903,57.588,2.169,,,,
521,4/4/2019 17:00,9.879,57.88,2.215,,,,
522,4/4/2019 17:15,9.682,59.03,2.294,,,,
523,4/4/2019 17:30,9.558,60.127,2.426,,,,
524,4/4/2019 17:45,9.46,61.047,2.536,,,,
525,4/4/2019 18:00,9.361,62.051,2.662,,,,
526,4/4/2019 18:15,9.312,62.275,2.663,,,,
527,4/4/2019 18:30,9.213,63.534,2.837,,,,
528,4/4/2019 18:45,8.916,65.411,2.943,,,,
529,4/4/2019 19:00,8.792,66.248,2.993,,,,
530,4/4/2019 19:15,8.618,68.179,3.209,,,,
531,4/4/2019 19:30,8.419,69.92,3.352,,,,
532,4/4/2019 19:45,8.369,70.107,3.339,,,,
533,4/4/2019 20:00,8.12,72.74,3.584,,,,
534,4/4/2019 20:15,7.619,76.6,3.775,,,,
535,4/4/2019 20:30,7.419,78.458,3.891,,,,
536,4/4/2019 20:45,7.318,79.783,4.009,,,,
537,4/4/2019 21:00,7.167,80.42,3.964,,,,
538,4/4/2019 21:15,7.419,78.971,3.975,,,,
539,4/4/2019 21:30,7.293,78.916,3.843,,,,
540,4/4/2019 21:45,7.167,79.427,3.804,,,,
541,4/4/2019 22:00,7.015,79.824,3.72,,,,
542,4/4/2019 22:15,6.99,80.113,3.742,,,,
543,4/4/2019 22:30,6.99,79.764,3.686,,,,
544,4/4/2019 22:45,7.091,78.926,3.648,,,,
545,4/4/2019 23:00,7.142,78.641,3.651,,,,
546,4/4/2019 23:15,7.268,77.83,3.639,,,,
547,4/4/2019 23:30,7.217,77.548,3.543,,,,
548,4/4/2019 23:45,7.116,76.303,3.235,,,,
549,4/5/2019 0:00,6.99,74.746,2.845,,,,
550,4/5/2019 0:15,6.914,74.538,2.735,,,,
551,4/5/2019 0:30,6.839,74.605,2.673,,,,
552,4/5/2019 0:45,6.763,75.192,2.701,,,,
553,4/5/2019 1:00,6.661,75.907,2.725,,,,
554,4/5/2019 1:15,6.535,76.642,2.726,,,,
555,4/5/2019 1:30,6.433,77.325,2.741,,,,
556,4/5/2019 1:45,6.357,77.742,2.736,,,,